Location: Albany
(35.0000°S, 118.0000°E)
Time: 16:48:37
(UTC-05:00)

Daily predictions for brighter satellites

Satellite Brightness Start Highest point End
(mag) Time Altitude Azimuth Time Altitude Azimuth Time Altitude Azimuth
BREEZE-M DEB (TANK) 4.3 12:01:17 10° SW 12:08:28 41° SSE 12:08:38 40° SSE
AQUA 4.5 12:11:41 53° SSE 12:11:41 53° SSE 12:15:29 10° S
Cosmos 1980 3.8 12:10:29 10° SSW 12:16:06 72° ESE 12:16:06 72° ESE
Cosmos 2219 Rocket 2.5 12:11:07 10° SSW 12:15:42 57° SW 12:15:42 57° SW
NOSS 0 Rocket 3.8 12:10:44 10° SSW 12:16:56 88° S 12:16:56 88° S
CBERS-1 4.4 12:20:20 60° SSW 12:20:20 60° SSW 12:24:35 10° SSW
ARIANE 5 R/B 3.6 12:19:51 37° E 12:20:48 40° ESE 12:25:41 10° S
CZ-2D R/B 3.3 12:22:06 32° ENE 12:23:26 37° ESE 12:28:15 10° S
Cosmos 2333 Rocket 2.4 12:28:42 10° SSW 12:33:41 60° WSW 12:33:41 60° WSW
Cosmos 968 Rocket 3.7 12:39:26 61° SW 12:39:26 61° SW 12:44:15 10° S
Lacrosse 5 2.6 12:35:06 10° SW 12:38:36 44° SW 12:38:36 44° SW
IRS-1C 4.4 12:43:47 56° WSW 12:43:47 56° WSW 12:48:29 10° SSW
Spot 4 Rocket 4.0 12:52:50 71° WSW 12:52:50 71° WSW 12:57:47 10° SSW
OAO 1 Rocket 4.3 12:52:59 87° WSW 12:53:05 89° S 12:58:30 10° E
SL-16 R/B 2.6 12:50:31 10° SSW 12:56:12 60° ESE 12:59:00 30° NE
CENTAUR R/B 4.1 12:52:00 10° WSW 12:53:50 17° WSW 12:53:50 17° WSW
Cosmos 2266 Rocket 4.2 12:51:05 10° SSW 12:57:12 52° W 12:57:30 52° W
Hubble Space Telescope 3.5 13:01:31 10° ENE 13:01:31 10° ENE 13:01:36 10° ENE
OTV 4 3.3 13:03:26 16° ESE 13:03:26 16° ESE 13:04:13 10° ESE
Cosmos 1892 3.9 13:04:25 10° SSW 13:06:53 35° SSW 13:06:53 35° SSW
Aureole 1 Rocket 3.1 13:05:07 10° SSW 13:10:55 84° WNW 13:11:14 78° NNW
Nadezhda 2 Rocket 4.4 13:05:06 10° SSW 13:11:15 65° W 13:12:21 55° NW
Cosmos 1825 3.9 13:07:52 10° SSE 13:11:17 29° ESE 13:12:30 24° ENE
ERBS 4.4 13:12:17 22° SSW 13:12:17 22° SSW 13:14:50 10° SSE
ERS-2 4.1 13:11:44 20° ENE 13:13:23 27° ESE 13:16:37 10° SSE
Cosmos 1408 4.2 13:10:15 10° SSE 13:13:33 30° ESE 13:14:25 26° ENE
ADEOS 4.4 13:23:36 35° W 13:23:36 35° W 13:27:56 10° SSW
Cosmos 2237 Rocket 3.3 13:20:31 10° SW 13:24:20 28° W 13:24:20 28° W
Cosmos 1417 Rocket 4.5 13:23:38 47° NNW 13:25:31 70° W 13:31:48 10° S
Cosmos 1745 Rocket 4.4 13:19:41 10° S 13:25:55 62° E 13:30:28 18° NNE
Cosmos 773 Rocket 3.9 13:20:56 10° SSW 13:26:15 77° WNW 13:27:42 48° N
USA 215 4.4 13:32:13 23° W 13:32:13 23° W 13:35:28 10° WSW
Cosmos 1862 Rocket 3.5 13:29:32 67° NNW 13:30:05 80° W 13:34:38 10° S
Cosmos 1455 3.7 13:31:53 25° SW 13:31:53 25° SW 13:34:19 10° SSW
ATLAS CENTAUR R/B 2.5 13:32:23 28° SW 13:32:23 28° SW 13:35:41 10° S
Cosmos 1869 4.0 13:35:51 40° WSW 13:35:51 40° WSW 13:39:25 10° S
S3M 4.0 13:35:33 38° NNW 13:38:10 74° W 13:44:38 10° S
Aureole 2 Rocket 4.2 13:36:41 10° SSW 13:38:20 23° SW 13:38:20 23° SW
SL-08 R/B 3.7 13:35:29 10° SSE 13:40:19 62° E 13:42:23 32° N
IRAS Rocket 4.3 13:39:13 38° NNW 13:41:14 61° WNW 13:46:50 10° SSW
Cosmos 923 Rocket 3.9 13:36:20 10° SSW 13:41:44 80° WNW 13:44:49 26° N
Resurs 1-4 Rocket 2.7 13:42:51 35° WNW 13:43:08 35° W 13:48:02 10° SSW
Okean O Rocket 2.5 13:40:24 12° NNE 13:44:19 50° ESE 13:48:40 10° S
Cosmos 2227 4.2 13:42:37 40° NW 13:44:44 75° WSW 13:50:32 10° SSE
Cosmos 1356 3.4 13:41:11 10° SSW 13:44:44 72° W 13:44:44 72° W
Cosmos 44 4.3 13:39:57 10° SSW 13:44:54 50° ESE 13:50:01 10° NE
UNKNOWN OBJECT B 3.0 13:45:42 51° W 13:45:42 51° W 13:49:34 10° SSW
Cosmos 2297 Rocket 4.0 13:44:00 15° W 13:45:56 17° SW 13:49:37 10° SSW
MOS 1-B 4.3 13:44:29 30° N 13:47:21 65° WNW 13:53:10 10° SSW
Cosmos 2227 Rocket 4.4 13:48:34 10° WSW 13:50:32 12° SW 13:52:31 10° SSW
USA 229 DEB 4.4 13:45:35 10° SSW 13:52:32 56° SE 13:59:18 10° NE
USA 229 4.4 13:45:41 10° SSW 13:52:38 56° SE 13:59:24 10° NE
Cosmos 1603 4.1 13:48:10 10° SSW 13:53:56 67° ESE 13:59:40 10° NNE
CZ-4B R/B 3.9 13:51:42 10° NNE 13:55:37 49° ESE 13:59:49 10° S
ARIANE 5 R/B 3.9 14:00:12 21° W 14:00:12 21° W 14:03:55 10° SW
IRS-1C Rocket 4.1 13:55:22 10° NNE 14:00:39 83° ESE 14:06:02 10° SSW
Cosmos 1733 Rocket 3.6 13:57:09 10° SSW 14:01:19 38° W 14:02:04 35° WNW
PAYLOAD B 4.3 13:57:23 10° NNE 14:02:55 80° ESE 14:08:31 10° S
CZ-2D R/B 3.3 14:03:26 22° W 14:03:33 23° W 14:07:39 10° SW
CZ-2D R/B 3.9 14:03:10 37° WNW 14:03:49 40° W 14:07:44 10° SSW
Cosmos 2150 Rocket 4.1 14:04:19 23° N 14:07:35 76° ENE 14:12:49 10° SSE
Cosmos 1933 3.9 14:06:52 35° WNW 14:07:48 41° W 14:11:42 10° S
Cosmos 1680 Rocket 3.6 14:04:05 10° SSW 14:09:21 57° WNW 14:13:34 15° N
ATLAS 3B CENTAUR R/B 4.2 14:05:53 13° N 14:09:45 21° NE 14:18:21 10° E
ADEOS II 3.0 14:05:34 10° NNE 14:10:40 51° ESE 14:15:49 10° S
Okean 2 Rocket 4.1 14:08:06 10° S 14:12:28 46° E 14:16:43 10° NNE
Cosmos 2263 Rocket 2.8 14:08:05 15° N 14:12:37 52° ENE 14:18:07 10° SSE
CZ-4B DEB 4.2 14:09:57 10° NNE 14:15:27 90° W 14:21:00 10° SSW
Cosmos 1943 4.3 14:13:19 10° S 14:18:47 47° ESE 14:24:10 10° NE
COBE Rocket 4.4 14:14:29 10° NNE 14:19:31 65° ESE 14:24:29 10° S
Cosmos 2298 Rocket 4.0 14:16:27 23° NNW 14:19:45 72° WSW 14:25:07 10° SSE
Cosmos 2221 Rocket 3.6 14:17:05 23° NNW 14:19:53 73° W 14:24:29 10° S
GP-B 3.2 14:16:29 10° S 14:21:02 79° E 14:25:22 11° N
CZ-4B R/B 3.1 14:17:46 10° N 14:23:04 73° WNW 14:28:26 10° SSW
ISS -2.7 14:23:06 27° NNW 14:24:32 48° NE 14:27:45 10° ESE
Cosmos 44 Rocket 3.8 14:19:53 10° SW 14:24:34 38° WNW 14:29:18 10° N
Cosmos 2112 Rocket 4.4 14:23:54 10° SSW 14:28:58 43° WNW 14:33:58 10° N
Cosmos 1782 Rocket 3.5 14:24:29 10° S 14:29:01 82° W 14:33:31 10° N
Cosmos 1242 Rocket 3.1 14:30:29 25° NW 14:32:05 39° WSW 14:35:29 10° S
Cosmos 292 Rocket 4.4 14:27:54 10° SW 14:32:23 36° W 14:36:17 13° NNW
Cosmos 1898 Rocket 3.9 14:29:40 20° NW 14:33:14 52° WSW 14:38:31 10° S
Cosmos 1908 Rocket 4.2 14:30:43 10° SSW 14:34:51 37° W 14:37:54 16° NNW
Cosmos 1937 Rocket 3.5 14:31:25 17° NNW 14:35:25 71° WSW 14:40:41 10° SSE
MOS 1 Rocket 3.4 14:31:10 10° NNE 14:35:29 74° ESE 14:40:02 10° S
OTV 4 1.1 14:35:03 11° WSW 14:37:53 56° S 14:40:52 10° E
Hubble Space Telescope 1.8 14:36:55 20° NW 14:38:41 27° N 14:42:14 10° NE
SL-16 R/B 3.7 14:36:28 10° WSW 14:39:42 16° W 14:40:47 15° WNW
Meteor 1-14 Rocket 4.3 14:33:42 10° S 14:39:45 83° W 14:45:35 10° N
ADEOS Rocket 4.0 14:35:34 10° NNW 14:42:32 42° W 14:49:53 10° SSW
Cosmos 1825 4.1 14:44:31 10° SW 14:46:34 14° W 14:47:23 13° W
Feng Yun 1-1 Rocket 4.4 14:41:24 10° NNE 14:46:48 78° ESE 14:52:18 10° S
ERS-2 3.9 14:46:31 15° WNW 14:47:08 15° W 14:49:24 10° WSW
Landsat 4 3.9 14:46:13 10° S 14:50:05 59° WSW 14:53:44 11° NNW
SL-16 R/B 2.6 14:45:49 10° S 14:52:08 77° WSW 14:58:22 10° NNW
Meteor 1-25 Rocket 4.4 14:48:16 10° S 14:54:06 87° E 14:59:57 10° N
PSLV R/B 3.8 14:52:14 10° N 14:56:31 51° W 15:00:52 10° SSW
Cosmos 1400 Rocket 4.0 14:56:54 10° SW 15:00:19 25° W 15:03:45 10° NNW
Cosmos 1709 Rocket 4.3 14:55:08 10° SSW 15:01:01 47° W 15:06:50 10° NNW
Okean 1-7 4.1 14:59:23 11° NW 15:02:58 29° WSW 15:06:50 10° SSW
Meteor 1-10 Rocket 4.3 14:57:49 10° N 15:03:24 89° E 15:09:02 10° S
UNK 4.3 15:02:04 10° S 15:06:33 44° WSW 15:11:01 10° NW
Meteor 1-27 Rocket 4.4 15:06:03 10° N 15:11:32 59° E 15:17:11 10° SSE
Meteor 1-31 Rocket 2.7 15:10:09 10° N 15:14:01 81° WNW 15:17:59 10° SSW
NOSS 3-1 (C) 3.6 15:08:01 10° SSW 15:14:21 78° ESE 15:20:05 10° NE
Aureole 3 Rocket 2.6 15:12:19 10° N 15:15:22 68° E 15:18:34 10° SSE
USA 161 2.8 15:14:25 10° SSW 15:16:13 18° WSW 15:17:56 10° WNW
NOAA 6 4.2 15:14:05 10° NNE 15:19:16 85° ESE 15:24:33 10° SSW
Milstar 3 Cent rocket 3.9 15:16:32 10° NW 15:22:13 23° NNE 15:26:17 10° ENE
